Wind_Speed
7 7 7 6 5 5 6 5 3 3 3 2 2 2 2 2 1 1 1 2 3 4 6 7 8 9 10 11 12 13 13 13 13 13 13 13 13 13 13 14 14 14 15 15 16 17 18 19 19
7 6 6 5 4 4 4 3 3 3 2 1 1 1 2 1 3 3 4 5 5 7 8 9 10 11 12 13 13 13 13 13 13 13 13 13 13 13 13 14 14 14 14 15 16 16 17 18 19
5 4 4 3 2 3 2 1 1 0 1 2 3 4 4 5 6 7 7 8 9 9 11 11 12 13 13 13 13 13 13 13 13 13 13 13 13 13 13 13 14 14 14 15 15 16 17 18 19
4 3 2 1 1 2 1 2 2 3 5 6 7 7 8 9 9 11 11 11 12 12 13 13 13 14 14 14 14 14 13 13 13 13 13 12 12 12 13 13 14 14 15 15 16 17 18 18 19
4 3 3 3 3 3 4 5 6 7 8 9 10 11 11 13 12 14 14 14 14 13 14 14 14 15 15 14 14 14 14 13 13 13 12 12 13 13 14 14 15 16 16 17 18 19 19 20 21
5 5 5 5 6 6 8 8 9 10 12 13 13 14 13 17 15 16 16 15 15 15 15 15 15 15 15 14 14 14 14 13 13 12 12 13 13 14 15 15 16 17 18 19 20 21 21 22 23
7 8 8 8 8 9 10 10 12 13 14 15 16 16 14 18 17 17 17 16 16 16 15 16 15 15 15 14 14 14 14 13 13 13 13 13 14 15 16 17 18 18 19 20 21 22 23 24 25
8 9 9 9 9 10 11 11 13 14 15 16 17 17 15 18 18 17 18 17 17 16 16 16 16 15 15 15 14 14 14 13 13 13 13 13 14 15 17 18 19 20 20 21 22 23 24 25 26
10 10 10 10 10 11 12 12 13 14 15 16 16 15 15 17 18 18 18 17 17 17 16 16 16 16 15 15 15 14 14 13 13 13 13 14 15 16 17 18 19 20 21 22 23 24 25 26 27
11 11 12 12 12 12 13 13 14 14 16 16 15 14 15 16 17 18 18 18 18 18 17 17 16 16 16 16 16 15 14 14 14 14 15 16 16 17 18 19 20 21 22 23 24 25 26 27 29
12 13 13 14 13 13 13 14 15 16 17 16 15 16 17 18 18 18 18 18 18 18 18 18 17 17 17 17 17 16 16 16 16 17 17 18 18 19 20 22 22 24 25 26 27 28 29 30 31
14 15 15 15 15 15 14 15 16 18 18 17 17 18 17 19 19 19 19 19 19 19 20 20 19 19 19 18 18 18 18 19 19 19 20 21 22 23 24 25 26 27 28 29 31 31 32 33 34
15 16 17 17 16 16 16 17 18 20 19 19 19 20 19 19 20 20 20 20 21 21 22 21 21 21 21 21 21 21 21 22 22 23 24 24 25 26 28 29 30 31 32 33 34 35 36 37 38
17 18 18 18 18 17 16 18 21 21 20 20 20 21 21 21 21 22 22 23 23 23 23 23 24 24 24 24 25 25 25 25 26 27 28 28 30 31 32 33 34 35 36 37 38 39 40 41 42
20 20 20 20 20 19 17 18 23 23 21 21 22 22 22 23 23 24 25 25 25 25 26 26 27 27 27 28 28 29 29 29 30 31 32 33 34 35 36 37 38 39 40 41 42 43 44 44 45
22 22 22 22 21 21 20 18 25 25 23 22 23 24 24 24 25 26 27 27 28 28 28 29 29 30 30 31 32 32 32 33 34 35 36 37 38 38 39 40 41 42 43 44 46 47 47 48 49
23 22 23 24 22 21 21 21 25 27 26 26 26 26 26 26 26 27 28 29 29 30 30 31 32 33 34 35 35 36 36 36 37 38 39 40 41 42 43 44 45 46 46 48 49 50 51 51 52
22 22 22 23 24 22 23 23 25 27 27 27 27 27 27 27 27 27 28 29 30 31 32 33 34 36 37 38 38 39 39 40 41 41 42 43 44 46 47 47 48 49 50 51 52 53 54 55 56
21 21 21 22 22 22 23 25 25 26 26 26 26 27 27 27 28 28 28 29 31 32 34 34 36 37 39 40 40 41 42 43 43 44 44 46 47 49 50 50 51 52 53 54 56 57 57 58 59
20 20 20 20 21 21 21 24 25 24 25 26 26 26 27 27 28 28 29 29 31 32 34 35 36 38 40 41 42 43 44 45 45 46 47 48 50 52 53 54 55 56 56 57 58 59 60 60 61
19 20 20 20 20 20 21 22 26 25 25 26 26 26 27 27 28 28 28 29 30 32 33 35 36 37 39 41 43 44 45 45 46 48 50 52 54 55 55 56 58 58 59 59 60 61 62 63 62
19 20 21 22 22 21 22 21 26 28 27 27 27 27 27 28 28 28 29 30 31 32 33 35 36 38 39 41 43 45 46 47 48 51 52 54 55 56 57 58 60 61 61 62 62 63 64 64 64
21 22 23 24 24 23 23 22 24 29 29 30 29 29 29 29 30 30 31 32 32 33 34 36 37 39 41 42 44 46 47 49 51 53 54 55 56 57 59 60 61 63 63 64 64 64 65 65 65
23 24 25 26 26 26 24 24 24 28 30 33 33 32 31 31 31 32 32 32 33 34 35 37 38 40 42 44 46 47 49 51 53 54 55 56 57 58 60 61 63 64 64 65 65 65 66 65 65
24 26 28 29 29 29 28 27 25 29 31 33 35 35 34 32 31 32 33 34 35 36 37 39 40 42 44 45 47 49 51 53 54 56 57 58 60 60 61 63 64 64 65 66 66 66 66 65 64
25 27 28 30 30 30 29 27 27 29 32 35 36 37 35 32 31 33 34 36 37 38 39 41 42 44 46 47 49 51 53 54 55 57 58 60 61 61 63 64 64 65 65 66 66 66 65 65 64
27 28 29 31 32 34 32 30 29 29 31 34 36 36 33 32 33 34 35 37 38 40 41 42 44 46 47 49 51 53 54 55 56 57 59 60 61 63 64 64 64 64 65 66 66 66 64 64 63
28 30 31 32 34 35 34 33 31 31 32 33 34 35 34 34 34 35 36 37 39 40 41 43 45 47 49 50 52 53 55 56 57 58 60 61 62 64 65 65 65 64 64 65 65 64 64 64 64
28 29 31 32 33 35 35 31 30 31 31 32 33 34 35 34 35 36 38 39 41 42 43 45 46 48 49 51 53 54 55 57 58 59 60 61 62 63 63 64 64 64 64 65 64 64 65 65 64
30 29 30 31 32 33 34 31 30 32 34 35 35 35 36 36 37 39 41 43 44 45 46 47 48 49 50 51 52 53 55 56 57 58 58 59 59 60 61 62 62 63 63 63 63 64 64 64 63
Wind_Direction
86 90 95 99 107 110 90 83 89 101 112 125 137 143 144 144 157 204 220 236 262 273 278 281 283 284 286 288 288 289 288 288 289 289 289 290 290 290 290 290 288 288 287 286 285 284 283 282 280
80 83 90 95 104 96 79 94 104 99 114 143 178 210 224 231 261 264 266 271 274 278 280 283 284 285 287 288 288 288 288 289 289 290 291 292 293 293 293 293 291 291 290 289 288 286 285 283 282
72 73 80 80 70 65 66 56 75 104 271 269 267 269 273 273 276 278 279 279 278 279 281 283 284 285 287 288 287 287 288 289 290 291 292 294 295 296 296 296 295 295 294 293 292 290 288 286 285
50 44 47 24 349 13 339 304 308 282 278 279 279 279 281 280 279 281 281 280 280 279 280 281 283 284 285 286 286 286 287 289 290 291 293 294 296 297 298 298 298 298 298 297 295 293 292 290 289
7 357 336 323 307 311 297 285 282 279 278 279 281 281 282 283 281 281 281 281 281 280 279 280 281 282 282 283 283 285 287 288 290 292 294 295 297 299 300 301 301 301 300 299 298 296 295 293 291
338 328 320 311 303 296 289 287 284 281 280 278 278 279 282 280 282 282 283 282 281 280 279 278 278 280 280 280 281 283 286 287 290 292 294 296 298 301 302 303 303 303 303 302 301 299 298 296 294
322 321 316 311 305 300 294 294 288 285 282 281 279 279 280 280 282 281 282 282 282 280 278 278 279 279 279 280 281 283 285 287 290 293 295 298 301 304 305 305 305 305 305 304 303 302 301 299 297
317 317 315 311 305 300 303 299 292 289 286 285 283 282 281 278 282 281 282 282 281 279 277 278 278 277 278 279 281 283 286 288 291 295 298 301 304 306 306 306 307 307 307 306 306 305 303 302 300
317 317 315 311 307 305 306 302 298 294 292 287 287 287 284 279 280 281 281 281 279 278 278 276 275 276 277 278 280 283 284 286 290 294 297 300 303 304 306 307 308 308 308 308 308 307 306 305 303
313 315 316 314 312 309 306 303 300 295 292 292 293 291 284 280 280 281 280 280 279 278 277 274 273 274 275 277 279 281 282 285 288 291 294 297 299 302 304 305 307 308 308 308 308 307 307 306 305
310 312 315 316 314 312 308 304 301 296 291 295 294 286 283 283 282 280 279 279 278 277 275 274 274 273 274 276 277 279 281 284 286 288 290 293 295 297 299 301 302 303 304 305 305 305 305 305 305
306 308 311 313 314 313 311 305 300 296 296 298 290 285 283 283 283 280 279 277 276 274 273 274 274 272 272 274 275 277 279 282 283 286 288 290 292 294 295 297 298 299 300 301 301 302 302 303 303
302 305 307 309 311 312 311 305 300 295 299 298 293 290 288 283 281 279 277 274 273 272 273 273 272 271 271 272 273 275 277 280 282 284 286 288 289 291 293 294 296 297 298 298 298 299 299 299 300
297 300 302 304 307 309 310 305 299 297 299 298 296 293 290 286 283 280 277 274 273 272 272 271 270 270 271 271 272 273 275 278 280 282 284 286 287 288 290 292 293 294 296 296 296 296 296 297 297
293 295 297 300 303 306 307 303 297 299 301 301 297 293 291 288 285 281 278 276 274 272 272 271 270 271 271 271 271 273 274 276 278 280 282 284 285 286 288 290 291 292 294 294 295 295 295 295 296
291 293 294 294 297 302 304 303 299 301 302 302 298 295 292 289 286 284 282 279 277 275 274 272 272 271 271 271 272 273 274 275 276 278 280 282 283 285 287 288 290 291 292 293 293 294 294 295 295
289 292 295 296 298 300 300 300 299 302 304 303 301 299 296 291 287 285 284 283 281 278 275 273 271 271 271 271 272 273 273 274 275 277 279 281 283 284 286 287 289 290 291 292 293 293 294 294 294
293 295 298 300 302 303 300 298 298 301 302 301 300 299 298 296 292 288 286 284 282 280 277 274 273 272 272 272 273 273 273 274 276 277 279 280 282 283 285 286 288 289 290 291 292 293 293 293 293
294 297 298 300 302 305 305 302 301 302 303 302 302 301 301 299 297 294 291 287 284 282 281 278 276 275 274 275 274 274 275 276 278 278 279 280 281 282 284 286 287 288 290 291 292 293 293 293 293
299 300 301 303 305 306 307 306 305 306 306 306 306 305 303 302 300 298 295 292 289 286 284 282 280 279 278 277 277 277 278 279 279 280 280 280 281 282 284 286 287 288 290 290 291 292 292 292 293
303 304 306 306 308 310 310 309 307 307 307 308 307 307 306 305 303 301 298 295 292 289 286 284 283 282 281 280 280 280 279 279 279 279 279 280 281 283 285 286 287 288 289 290 290 291 291 292 292
304 305 307 308 309 312 312 314 312 311 310 310 309 308 308 307 306 303 300 297 293 290 288 285 283 282 281 281 281 280 279 279 279 279 280 281 282 283 284 286 287 288 289 289 290 290 291 291 292
304 306 307 308 310 312 311 311 314 310 310 308 308 308 308 307 306 303 300 297 295 292 290 287 285 284 282 281 281 280 281 280 280 280 281 282 282 283 284 285 286 287 288 289 289 290 290 292 293
304 305 306 306 307 307 309 313 317 311 311 308 308 308 308 308 307 303 300 297 295 293 291 289 288 286 285 284 282 282 281 281 281 281 281 282 282 283 284 285 286 286 287 288 289 290 291 292 292
304 305 306 307 310 312 315 318 318 311 308 306 306 306 307 308 306 303 300 297 295 294 292 291 289 287 286 285 284 283 282 282 282 282 282 282 283 284 284 285 285 286 287 288 289 290 292 292 292
304 305 307 308 310 310 311 313 314 309 306 304 305 306 308 310 307 303 301 299 297 296 294 293 291 290 288 287 286 284 283 283 283 283 283 284 284 284 284 285 285 286 287 288 289 290 291 292 292
303 304 305 305 305 306 308 310 310 309 308 306 307 309 315 315 311 308 306 303 301 299 297 295 293 291 289 288 287 286 286 285 285 285 285 285 285 285 285 286 286 286 287 288 289 290 291 291 292
301 303 304 304 305 307 309 313 316 315 312 310 311 315 318 316 313 310 308 306 303 301 299 297 295 294 292 290 289 288 287 287 286 286 285 285 285 285 286 286 286 286 287 287 288 289 290 291 291
297 299 300 301 303 305 308 314 317 312 310 309 311 314 314 313 312 311 309 308 306 305 304 302 300 298 296 294 292 290 289 288 288 287 286 286 286 286 286 286 287 287 287 288 288 289 289 290 291
298 300 300 301 302 304 307 315 316 312 310 311 315 315 314 314 313 312 311 310 309 308 307 306 305 303 301 299 297 294 292 291 290 289 288 288 287 287 287 287 288 288 288 288 288 289 289 290 291
Height
5862 5862 5862 5863 5863 5863 5861 5862 5862 5862 5863 5863 5863 5863 5863 5864 5865 5868 5866 5866 5866 5866 5867 5867 5867 5867 5867 5866 5866 5866 5866 5865 5865 5865 5864 5864 5864 5864 5864 5864 5863 5863 5863 5863 5863 5863 5863 5863 5863
5863 5863 5864 5864 5863 5862 5862 5862 5862 5863 5864 5863 5863 5863 5863 5864 5864 5864 5864 5864 5865 5865 5865 5865 5865 5865 5865 5864 5864 5864 5863 5863 5862 5862 5862 5861 5861 5861 5861 5861 5861 5861 5860 5860 5860 5860 5860 5859 5859
5864 5864 5864 5864 5864 5863 5863 5863 5863 5864 5864 5864 5864 5863 5863 5864 5863 5863 5863 5863 5863 5864 5863 5863 5863 5863 5862 5862 5862 5861 5861 5860 5860 5860 5859 5859 5858 5858 5858 5858 5858 5858 5857 5857 5857 5857 5856 5856 5856
5865 5865 5865 5865 5864 5863 5863 5863 5863 5863 5863 5863 5863 5863 5863 5863 5862 5862 5861 5861 5861 5861 5861 5860 5860 5860 5860 5859 5859 5859 5858 5858 5857 5857 5856 5856 5856 5855 5855 5855 5855 5854 5854 5854 5854 5853 5853 5852 5852
5865 5865 5865 5864 5863 5862 5862 5862 5862 5862 5862 5862 5862 5861 5862 5860 5860 5860 5859 5859 5859 5859 5858 5858 5858 5857 5857 5857 5856 5856 5856 5855 5855 5854 5854 5853 5853 5853 5852 5852 5852 5851 5851 5850 5850 5850 5849 5849 5848
5866 5865 5864 5863 5862 5861 5861 5861 5861 5861 5860 5860 5860 5859 5860 5858 5858 5857 5857 5856 5856 5856 5856 5855 5855 5855 5854 5854 5854 5853 5853 5852 5852 5851 5851 5851 5850 5850 5849 5849 5848 5848 5847 5847 5846 5845 5845 5844 5844
5866 5864 5863 5862 5861 5860 5860 5860 5859 5859 5858 5858 5857 5857 5857 5855 5855 5854 5854 5854 5853 5853 5853 5852 5852 5852 5851 5851 5851 5850 5850 5850 5849 5849 5848 5848 5847 5847 5846 5845 5845 5844 5843 5843 5842 5841 5840 5839 5838
5864 5864 5862 5861 5860 5859 5858 5858 5857 5857 5856 5855 5854 5854 5855 5853 5852 5851 5851 5850 5850 5850 5850 5850 5849 5849 5849 5848 5848 5848 5847 5847 5846 5846 5845 5845 5844 5843 5843 5842 5841 5840 5840 5839 5838 5836 5835 5834 5833
5863 5863 5861 5860 5859 5858 5857 5856 5855 5855 5853 5852 5851 5851 5852 5850 5849 5848 5848 5847 5847 5847 5847 5847 5846 5846 5846 5845 5845 5845 5844 5844 5843 5843 5842 5842 5841 5840 5840 5839 5838 5837 5836 5834 5833 5832 5831 5829 5828
5862 5861 5860 5858 5857 5856 5855 5854 5853 5852 5851 5850 5849 5848 5848 5847 5846 5845 5845 5844 5844 5844 5844 5843 5843 5843 5842 5842 5842 5841 5841 5841 5840 5840 5839 5838 5838 5837 5836 5835 5834 5833 5831 5830 5829 5827 5826 5825 5823
5860 5859 5858 5856 5855 5854 5853 5852 5850 5849 5848 5847 5847 5846 5845 5844 5843 5842 5841 5841 5841 5840 5840 5840 5840 5840 5839 5839 5838 5838 5838 5837 5837 5836 5835 5835 5834 5833 5832 5831 5830 5828 5827 5826 5824 5822 5821 5819 5817
5858 5857 5855 5854 5853 5852 5851 5849 5848 5846 5846 5845 5844 5842 5842 5841 5840 5839 5838 5838 5837 5837 5836 5836 5836 5836 5836 5835 5835 5834 5834 5833 5832 5832 5831 5830 5829 5828 5827 5826 5825 5823 5822 5820 5818 5817 5815 5813 5811
5855 5854 5853 5852 5850 5849 5848 5846 5845 5843 5842 5841 5840 5839 5838 5837 5836 5835 5834 5834 5833 5832 5832 5832 5832 5831 5831 5831 5830 5830 5829 5829 5828 5827 5826 5825 5824 5823 5821 5820 5819 5817 5815 5813 5812 5810 5808 5805 5803
5852 5851 5850 5849 5848 5847 5846 5843 5840 5840 5839 5838 5836 5835 5834 5833 5832 5831 5830 5829 5829 5828 5828 5827 5827 5826 5826 5826 5825 5825 5824 5823 5822 5821 5820 5819 5817 5816 5815 5813 5812 5810 5808 5806 5804 5801 5799 5797 5794
5848 5848 5847 5845 5844 5843 5843 5840 5836 5835 5835 5834 5832 5831 5830 5829 5828 5827 5826 5825 5824 5824 5823 5822 5821 5821 5820 5820 5819 5818 5818 5817 5816 5814 5813 5812 5810 5809 5807 5805 5803 5801 5799 5797 5794 5792 5789 5787 5784
5844 5844 5843 5842 5841 5839 5839 5837 5832 5831 5830 5829 5827 5826 5825 5824 5823 5821 5820 5820 5819 5818 5818 5817 5816 5815 5814 5813 5812 5812 5811 5810 5809 5807 5805 5803 5802 5800 5798 5796 5794 5792 5790 5787 5784 5781 5779 5776 5773
5840 5840 5838 5836 5836 5835 5833 5832 5828 5826 5825 5824 5822 5821 5819 5818 5817 5816 5815 5814 5813 5812 5812 5811 5810 5808 5807 5806 5805 5804 5803 5802 5800 5799 5797 5795 5792 5791 5789 5787 5784 5782 5779 5776 5773 5770 5767 5764 5761
5836 5835 5833 5831 5830 5830 5828 5826 5824 5821 5820 5819 5817 5815 5814 5812 5811 5810 5809 5808 5806 5805 5804 5804 5802 5801 5799 5798 5797 5796 5795 5793 5792 5790 5788 5785 5783 5780 5778 5776 5773 5770 5768 5764 5761 5758 5754 5751 5747
5831 5830 5829 5828 5826 5825 5823 5820 5819 5817 5815 5813 5812 5810 5808 5807 5805 5803 5802 5801 5799 5798 5797 5796 5795 5793 5791 5790 5789 5787 5786 5784 5783 5781 5779 5776 5773 5770 5767 5765 5762 5759 5756 5753 5749 5745 5741 5737 5733
5826 5826 5825 5824 5822 5821 5819 5815 5813 5812 5810 5808 5807 5805 5803 5801 5799 5797 5795 5794 5792 5790 5789 5788 5787 5785 5783 5782 5780 5779 5777 5775 5773 5771 5768 5765 5762 5759 5756 5753 5750 5746 5743 5740 5736 5731 5727 5724 5719
5822 5821 5821 5820 5818 5817 5815 5812 5808 5807 5805 5803 5801 5799 5797 5795 5793 5791 5788 5786 5784 5782 5781 5779 5777 5776 5774 5772 5771 5769 5767 5765 5763 5760 5757 5754 5750 5748 5744 5741 5737 5734 5730 5726 5722 5718 5713 5709 5706
5819 5817 5816 5814 5813 5813 5811 5809 5804 5801 5799 5798 5796 5794 5792 5790 5787 5784 5782 5779 5777 5775 5772 5770 5768 5766 5764 5762 5760 5758 5756 5755 5752 5748 5745 5742 5738 5735 5731 5728 5724 5720 5716 5712 5708 5703 5699 5694 5690
5814 5813 5812 5809 5808 5808 5806 5805 5802 5796 5793 5791 5789 5788 5786 5784 5781 5778 5775 5772 5769 5767 5764 5762 5759 5757 5754 5752 5750 5747 5745 5743 5739 5736 5733 5730 5726 5722 5718 5714 5709 5705 5701 5697 5692 5688 5683 5679 5674
5809 5808 5807 5805 5803 5803 5801 5799 5798 5791 5788 5784 5782 5780 5779 5777 5774 5770 5767 5764 5761 5758 5756 5753 5750 5747 5744 5741 5738 5735 5733 5729 5726 5723 5719 5716 5712 5709 5704 5699 5694 5690 5686 5681 5677 5672 5668 5664 5659
5805 5803 5801 5798 5797 5796 5794 5793 5792 5786 5782 5778 5775 5773 5771 5770 5766 5763 5759 5756 5753 5750 5747 5743 5740 5737 5733 5730 5726 5723 5719 5716 5712 5708 5704 5701 5697 5694 5690 5684 5679 5675 5670 5665 5660 5656 5652 5647 5642
5800 5798 5796 5793 5791 5790 5789 5788 5787 5781 5776 5771 5768 5766 5764 5762 5758 5755 5751 5747 5744 5741 5737 5733 5729 5726 5722 5718 5714 5710 5706 5702 5698 5694 5689 5685 5682 5678 5673 5669 5664 5659 5654 5649 5644 5640 5636 5631 5626
5794 5792 5790 5787 5784 5782 5782 5781 5779 5774 5769 5764 5761 5757 5756 5753 5750 5746 5742 5738 5734 5731 5727 5723 5718 5714 5710 5705 5701 5697 5692 5688 5684 5679 5675 5670 5666 5661 5656 5652 5648 5644 5638 5633 5628 5624 5619 5614 5610
5788 5786 5784 5780 5777 5774 5774 5773 5770 5766 5762 5758 5753 5750 5748 5745 5742 5738 5734 5729 5725 5721 5716 5712 5707 5702 5698 5693 5688 5683 5678 5674 5669 5665 5660 5655 5650 5645 5640 5635 5631 5627 5622 5617 5612 5608 5603 5598 5594
5783 5781 5777 5774 5771 5768 5765 5768 5764 5759 5755 5752 5748 5745 5741 5738 5734 5729 5725 5720 5715 5711 5706 5701 5696 5691 5686 5680 5675 5670 5665 5659 5654 5649 5644 5639 5634 5629 5624 5619 5614 5610 5605 5601 5595 5591 5586 5582 5577
5775 5774 5771 5768 5765 5761 5758 5761 5757 5752 5747 5743 5741 5737 5733 5729 5725 5720 5716 5710 5705 5700 5695 5690 5684 5679 5673 5667 5662 5656 5650 5645 5639 5634 5629 5624 5618 5613 5608 5603 5598 5593 5588 5583 5579 5574 5569 5564 5560